Weather History for Amarillo, TX

Change the Weather History Date:

Tuesday, January 15, 2013

  Actual Average Record
Temperature  
Mean Temperature 24 °F 37 °F  
Max Temperature 32 °F 51 °F 75 °F (1938)
Min Temperature 15 °F 23 °F -1 °F (1904)
Degree Days  
Heating Degree Days 41 28  
Month to date heating degree days 487 426  
Since 1 July heating degree days 1844 2143  
Cooling Degree Days 0 0  
Month to date cooling degree days 0 0  
Year to date cooling degree days 0 0  
Moisture  
Dew Point 13 °F    
Average Humidity 61    
Maximum Humidity 74    
Minimum Humidity 47    
Precipitation  
Precipitation 0.00 in 0.02 in 0.25 in (1946)
Month to date precipitation 0.68 0.29  
Year to date precipitation 0.68 0.29  
Snow  
Snow 0.00 in 0.10 in 3.60 in (1946)
Month to date snowfall 0.2 1.7  
Since 1 July snowfall 2.3 8.1  
Snow Depth 0.00 in    
Sea Level Pressure  
Sea Level Pressure 30.24 in    
Wind  
Wind Speed 6 mph (West)    
Max Wind Speed 13 mph    
Max Gust Speed 17 mph    
Visibility 10 miles    
Events      
T = Trace of Precipitation, MM = Missing Value Source: NWS Daily Summary

Daily Weather History Graph

Daily Weather History Graph

Search for Another Location

Airport:

Trip Planner

Search our weather history database for the weather conditions in past years. The results will help you decide how hot, cold, wet, or windy it might be!

Date:

Astronomy

Jan. 15, 2013 Rise Set
Actual Time 7:54 AM CST 5:58 PM CST
Civil Twilight 7:27 AM CST 6:25 PM CST
Nautical Twilight 6:56 AM CST 6:57 PM CST
Astronomical Twilight 6:25 AM CST 7:27 PM CST
Moon 10:13 AM CST (1/15) 10:37 PM CST (1/15)
Length of Visible Light 10h 58m
Length of Day
10h 03m
Waxing Crescent, 19% of the Moon is Illuminated
Jan 15
Waxing Crescent
Jan 18
First Quarter
Jan 26
Full
Feb 3
Last Quarter
Feb 10
New

Hourly Weather History & Observations

Time (CST) Temp. Windchill Dew Point Humidity Pressure Visibility Wind Dir Wind Speed Gust Speed Precip Events Conditions
12:53 AM 21.0 °F - 10.0 °F 63% 30.25 in 10.0 mi Calm Calm - N/A   Overcast
1:53 AM 18.0 °F 9.8 °F 10.9 °F 74% 30.24 in 10.0 mi ESE 5.8 mph - N/A   Partly Cloudy
2:53 AM 19.9 °F 13.4 °F 12.0 °F 71% 30.26 in 10.0 mi SE 4.6 mph - N/A   Overcast
3:53 AM 19.0 °F 13.9 °F 12.0 °F 74% 30.25 in 10.0 mi SSE 3.5 mph - N/A   Partly Cloudy
4:43 AM 19.4 °F - 12.2 °F 74% 30.16 in 10.0 mi Calm Calm - N/A   Mostly Cloudy
4:53 AM 19.4 °F - 10.4 °F 68% 30.15 in 10.0 mi Calm Calm - N/A   Scattered Clouds
5:53 AM 18.0 °F - 9.0 °F 68% 30.24 in 10.0 mi Calm Calm - N/A   Clear
6:53 AM 17.1 °F 11.7 °F 10.0 °F 74% 30.25 in 10.0 mi WSW 3.5 mph - N/A   Clear
7:53 AM 18.0 °F - 10.0 °F 71% 30.25 in 10.0 mi Calm Calm - N/A   Clear
8:53 AM 21.0 °F 16.2 °F 12.9 °F 71% 30.25 in 10.0 mi WSW 3.5 mph - N/A   Clear
9:53 AM 26.1 °F 18.4 °F 16.0 °F 66% 30.25 in 10.0 mi West 6.9 mph - N/A   Clear
10:53 AM 28.0 °F 19.3 °F 15.1 °F 58% 30.25 in 10.0 mi West 9.2 mph - N/A   Clear
11:53 AM 30.0 °F 21.7 °F 15.1 °F 54% 30.25 in 10.0 mi WNW 9.2 mph - N/A   Clear
12:53 PM 30.0 °F 21.7 °F 12.9 °F 49% 30.22 in 10.0 mi WNW 9.2 mph - N/A   Overcast
1:53 PM 30.9 °F 21.7 °F 12.9 °F 47% 30.22 in 10.0 mi WNW 11.5 mph 17.3 mph N/A   Overcast
2:53 PM 30.9 °F 21.7 °F 14.0 °F 50% 30.21 in 10.0 mi WNW 11.5 mph - N/A   Overcast
3:53 PM 30.0 °F 22.4 °F 14.0 °F 51% 30.23 in 10.0 mi NW 8.1 mph - N/A   Overcast
4:53 PM 30.9 °F 25.2 °F 14.0 °F 50% 30.23 in 10.0 mi NW 5.8 mph - N/A   Mostly Cloudy
5:53 PM 28.0 °F 21.7 °F 15.1 °F 58% 30.25 in 10.0 mi WNW 5.8 mph - N/A   Clear
6:53 PM 25.0 °F 20.7 °F 14.0 °F 63% 30.26 in 10.0 mi West 3.5 mph - N/A   Clear
7:53 PM 23.0 °F 15.8 °F 14.0 °F 68% 30.27 in 10.0 mi WSW 5.8 mph - N/A   Clear
8:53 PM 21.9 °F 13.4 °F 14.0 °F 72% 30.27 in 10.0 mi WSW 6.9 mph - N/A   Clear
9:53 PM 19.9 °F 11.1 °F 12.9 °F 74% 30.26 in 10.0 mi WSW 6.9 mph - N/A   Clear
10:53 PM 17.1 °F 7.6 °F 10.9 °F 77% 30.25 in 10.0 mi SW 6.9 mph - N/A   Clear
11:53 PM 19.4 °F 11.5 °F 12.2 °F 74% 30.16 in 10.0 mi West 5.8 mph - N/A   Clear